Location: Bush Observatory
(40.2653°N, 94.3194°W)
Time: 12:48:54
(UTC-05:00)

OTV 5 (USA 277) - Visible Passes

Search period start: 23 July 2018 00:00
Search period end: 02 August 2018 00:00
Orbit: 312 x 321 km, 54.5° (Epoch: 05 July)

Date Brightness Start Highest point End Pass type
(mag) Time Alt. Az. Time Alt. Az. Time Alt. Az.
28 Jul ? 04:52:07 11° SSE 04:53:38 16° SE 04:55:26 10° E visible
29 Jul ? 05:06:16 19° SSW 05:07:56 48° SE 05:10:33 10° ENE visible
30 Jul ? 05:20:20 15° WSW 05:22:21 50° NW 05:25:00 10° NE visible
31 Jul ? 04:03:28 22° E 04:03:28 22° E 04:04:58 10° ENE visible
31 Jul ? 05:34:47 10° W 05:36:55 20° NNW 05:39:05 10° NNE visible
01 Aug ? 04:17:25 58° NE 04:17:25 58° NE 04:19:41 10° NE visible
